30.06.2024;15:00;2
30.06.2024;14:00;2
30.06.2024;13:00;1
30.06.2024;12:00;1
30.06.2024;11:00;1
30.06.2024;10:00;1
30.06.2024;09:00;2
30.06.2024;08:00;5
30.06.2024;07:00;9
30.06.2024;06:00;9
30.06.2024;05:00;15
30.06.2024;04:00;23
30.06.2024;03:00;30
30.06.2024;02:00;30
30.06.2024;01:00;29
30.06.2024;00:00;19
29.06.2024;23:00;3
29.06.2024;22:00;2
29.06.2024;21:00;2
29.06.2024;20:00;3
29.06.2024;19:00;11
29.06.2024;18:00;20
29.06.2024;17:00;21
29.06.2024;16:00;12
29.06.2024;15:00;16
29.06.2024;14:00;21
29.06.2024;13:00;15
29.06.2024;12:00;3
29.06.2024;11:00;2
29.06.2024;10:00;2
29.06.2024;09:00;2
29.06.2024;08:00;3
29.06.2024;07:00;8
29.06.2024;06:00;20
29.06.2024;05:00;24
29.06.2024;04:00;27
29.06.2024;03:00;24
29.06.2024;02:00;14
29.06.2024;01:00;9
29.06.2024;00:00;4
28.06.2024;23:00;14
28.06.2024;22:00;23
28.06.2024;21:00;25
28.06.2024;20:00;21
28.06.2024;19:00;17
28.06.2024;18:00;17
28.06.2024;17:00;23
28.06.2024;16:00;26
